Regional Weather Roundup
Issued by NWS

Home | Current Version | Previous Version | Text Only | Print | Product List | Glossary Off
Versions: 1 2 3 4 5 6 7 8 9 10 11 12 13 14 15 16 17 18 19 20 21 22 23 24 25 26 27 28 29 30 31 32 33 34 35 36 37 38 39 40 41 42 43 44 45 46 47 48 49 50

000
ASUS43 KDMX 212206
RWRIA

WEATHER ROUNDUP FOR IOWA
NATIONAL WEATHER SERVICE DES MOINES IA
400 PM CST TUE FEB 21 2017

NOTE: "FAIR" INDICATES FEW OR NO CLOUDS BELOW 12,000 FEET WITH NO
SIGNIFICANT WEATHER AND/OR OBSTRUCTIONS TO VISIBILITY.

* - THESE STATIONS ARE NOT NWS STATIONS...THUS NOT UNDER NWS
QUALITY CONTROL.  THEY ALSO DO NOT REPORT WEATHER SUCH
AS PRECIPITATION OR FOG.

IAZ001>003-012>014-020>022-031>034-043>046-212300-
   NORTHWEST IOWA

CITY           SKY/WX    TMP DP  RH WIND       PRES   REMARKS
CARROLL *      SUNNY     64  46  52 S18G24    29.82S
CHEROKEE *     SUNNY     68  39  34 SW20G25   29.76
DENISON *      SUNNY     66  43  42 S20       29.79F
LE MARS *      SUNNY     70  39  32 SW22G30   29.74F
ORANGE CITY *  SUNNY     66  45  45 SW15      29.74F
SHELDON *      SUNNY     66  46  48 S16       29.72S
SIOUX CITY     SUNNY     73  37  27 SW25G37   29.76F
SPENCER        SUNNY     65  46  50 S16       29.74F
STORM LAKE *   SUNNY     64  43  45 S23G30    29.77F
$$

IAZ055>058-069>071-079>083-090>094-212300-
   SOUTHWEST IOWA

CITY           SKY/WX    TMP DP  RH WIND       PRES   REMARKS
ATLANTIC *     SUNNY     64  43  45 S16       29.85F
CLARINDA *     SUNNY     68  37  32 SW7         N/A
COUNCIL BLFS * SUNNY     68  37  32 S17       29.84F
CRESTON *      SUNNY     64  37  36 SW9       29.91S
HARLAN  *      SUNNY     64  41  42 SW20G25   29.86F
LAMONI         SUNNY     68  33  27 SW6       29.89F
RED OAK *      SUNNY     66  43  42 S14       29.88S
SHENANDOAH *   SUNNY     68  39  34 S12       29.88F
$$

IAZ047>049-059>061-072>074-084-212300-
   CENTRAL IOWA

CITY           SKY/WX    TMP DP  RH WIND       PRES   REMARKS
AMES           SUNNY     64  41  42 S14       29.85F
ANKENY *       SUNNY     66  34  30 S10       29.87F
BOONE *        SUNNY     64  43  45 S8G17     29.84F
CHARITON *     SUNNY     68  32  26 SW6G12    29.89F
DES MOINES     MOSUNNY   68  32  26 SW13      29.86F
GRINNELL*      SUNNY     64  41  43 SW6       29.90F
KNOXVILLE *    SUNNY     68  32  26 SW10      29.87F
MARSHALLTOWN   SUNNY     63  41  44 S13       29.86F
NEWTON *       SUNNY     64  39  39 SW10      29.88F
PELLA *        SUNNY     68  34  28 SW3       29.90F
PERRY *          N/A     64  39  39 S16       29.84F
$$

IAZ004>006-015-016-023>025-035-036-212300-
   NORTH CENTRAL IOWA

CITY           SKY/WX    TMP DP  RH WIND       PRES   REMARKS
ALGONA *       SUNNY     63  48  59 S18       29.77S
CLARION *      SUNNY     61  48  63 S18       29.80F
ESTHERVILLE    SUNNY     63  44  50 S18       29.74F
FORT DODGE *   SUNNY     63  45  51 S17       29.81F
MASON CITY     MOSUNNY   58  48  69 S17       29.80F
FOREST CITY *    N/A     61  46  59 S16G23    29.79F
WEBSTER CITY * SUNNY     63  45  51 S18       29.80F
IOWA FALLS *     N/A     62  46  57 S15       29.84F
$$

IAZ007>011-017>019-026>030-037>042-050>054-066-212300-
   NORTHEAST IOWA

CITY           SKY/WX    TMP DP  RH WIND       PRES   REMARKS
CEDAR RAPIDS   MOSUNNY   61  44  53 SW6       29.89F
CHARLES CITY * CLOUDY    55  46  71 S15       29.83F
CLINTON *      SUNNY     64  43  46 W6        29.90F
DECORAH *      CLOUDY    57  43  58 S8        29.84F
DUBUQUE        MOSUNNY   58  40  51 SW7       29.90S
MONTICELLO *   CLOUDY    61  41  48 CALM      29.90S
OELWEIN *      MOSUNNY   57  46  67 S9        29.88F
WATERLOO       CLOUDY    61  42  49 S7        29.86F
$$

IAZ064-065-067-068-078-212300-
   EAST CENTRAL IOWA

CITY           SKY/WX    TMP DP  RH WIND       PRES   REMARKS
DAVENPORT      SUNNY     64  39  39 SW3       29.90F
IOWA CITY      SUNNY     66  37  34 MISG      29.91S
MUSCATINE *    SUNNY     66  41  39 CALM      29.90S
QUAD CITIES    SUNNY     69  44  40 CALM      29.88F
$$

IAZ062-063-075>077-085>089-095>099-212300-
   SOUTHEAST IOWA

CITY           SKY/WX    TMP DP  RH WIND       PRES   REMARKS
BURLINGTON     SUNNY     66  54  65 S6        29.89S
FAIRFIELD *    SUNNY     68  30  24 W5        29.89F
KEOKUK *       SUNNY     66  54  63 CALM      29.89S
OTTUMWA        SUNNY     69  33  26 W5        29.89F
WASHINGTON *   SUNNY     68  34  28 SW7       29.91S
$$

ABBREVIATIONS USED IN REMARKS
   TC - TEMPERATURES IN CELSIUS
  WCI - WIND CHILL INDEX
   HX - HEAT INDEX
  VSB - VISIBILITY
$$




USA.gov is the U.S. government's official web portal to all federal, state and local government web resources and services.